Regional Weather Roundup
Issued by NWS Pendleton, OR

Home | Current Version | Previous Version | Text Only | Print | Product List | Glossary On
Versions: 1 2 3 4 5 6 7 8 9 10 11 12 13 14 15 16 17 18 19 20 21 22 23 24 25 26 27 28 29 30 31 32 33 34 35 36 37 38 39 40 41 42 43 44 45 46 47 48 49 50
571
ASUS46 KPDT 260210
RWRPDT
PENDLETON REGIONAL WEATHER ROUNDUP
NATIONAL WEATHER SERVICE PENDLETON OREGON
600 PM PST SAT FEB 25 2017

NOTE: FAIR INDICATES FEW OR NO CLOUDS BELOW 12,000 FEET WITH NO
SIGNIFICANT WEATHER AND/OR OBSTRUCTIONS TO VISIBILITY.

# INDICATES UNOFFICIAL STATION AND DATA

WAZ520-260310-
EAST SLOPES OF WASHINGTON CASCADES

CITY            SKY/WX      TMP DP  RH  WIND    PRES   REMARKS
#CLE ELUM HS    N/A         33  23  66  W7      29.89F
#CLE ELUM LAKE  N/A         29  23  78  W2      29.99F
#GLENWOOD       N/A         35  28  75  SW6     30.06F
#MANASTASH CYN  N/A         32  18  56  CALM    29.87F
#NELSON 3SW     N/A         30  23  75  SW1     30.25F
#NILE           N/A         34  25  69  CALM    29.26F
#TEANAWAY 4NE   N/A         34  24  66  W1      N/A
#TROUT LAKE 1NE N/A         35  28  75  W3      30.07F
#TROUT LAKE 1E  N/A         36  25  64  CALM    30.00F
$$

WAZ521-260310-
SIMCOE HIGHLANDS

CITY            SKY/WX      TMP DP  RH  WIND    PRES   REMARKS
#BICKLETON HS   N/A         32  24  72  SW9     29.54F
#CENTERVILLE 1SWN/A         34  27  75  W15     30.04F WCI 24
#GOLDENDALE 1NE N/A         37  17  44  SW7     N/A
#GOLDENDALE 4W  N/A         36   3  24  SW9     29.99F
#GOODNOE HILLS  N/A         39  25  57  W21     29.88F WCI 29
#LYLE 6NE       N/A         38  29  70  W16     30.02F WCI 29
#PITT 4SE       N/A         32  27  82  CALM    30.08F
$$

WAZ026-260310-
KITTITAS VALLEY

CITY            SKY/WX      TMP DP  RH  WIND    PRES   REMARKS
ELLENSBURG AP   CLOUDY      36  24  61  NW20    29.92F WCI 25
#ELLENSBURG CWU N/A         35  26  69  N15     29.96F WCI 25
#ELLENSBURG 3NE N/A         34  26  72  W9      28.00F
#ELLENSBURG 1E  N/A         34  N/A N/A NW1     N/A
#KITTITAS 4N    N/A         33  25  72  NW12    29.93F WCI 24
#KITTITAS 3S    N/A         33  26  75  W5      30.02F
#THORP 6N       N/A         31  24  75  NW15G28 30.04F WCI 20
$$

WAZ027-260310-
YAKIMA VALLEY

CITY            SKY/WX      TMP DP  RH  WIND    PRES   REMARKS
SUNNYSIDE AP    CLOUDY      35  28  75  W5      29.98F
YAKIMA AIRPORT  CLOUDY      39  25  57  VRB3    29.95F
YAKIMA-VAGABOND MOCLDY      34  24  66  CALM    29.92F
#DONALD 2NE     N/A         34   9  35  CALM    28.80F
#GRANDVIEW      N/A         39  26  59  W1      30.02F
#MABTON         N/A         38  31  76  W5      29.97F
#MOXEE 2E       N/A         36   0  21  N3      29.93F
#NACHES 2SW     N/A         34  25  69  E1      29.94F
#TERRACE HTS    N/A         36  26  67  CALM    29.98F
#TOPPENISH      N/A         36  28  72  CALM    29.93F
#WEST VALLEY    N/A         40  22  48  N8      29.99F
#W YAKIMA       N/A         37  25  61  CALM    30.02F
#WHITE SWAN 5E  N/A         34  26  72  CALM    30.02F
#WILEY CITY 3W  N/A         36  21  54  CALM    29.90F
$$

WAZ028-260310-
LOWER COLUMBIA BASIN...WASHINGTON

CITY            SKY/WX      TMP DP  RH  WIND    PRES   REMARKS
PASCO           CLOUDY      43  26  51  SW12    29.98F WCI 37
PROSSER AWOS    N/A         39  34  82  W8      30.00F
RICHLAND AWOS   CLOUDY      44  28  53  S10     29.98F
#BENTON CITY    N/A         40  27  59  CALM    29.89F
#CONNELL 5N     N/A         35  29  78  SW2     30.00F
#CONNELL 5NW    N/A         35  29  78  S2      29.96F
#ELTOPIA 6NW    N/A         38  31  76  CALM    28.92F
#KAHLOTUS       N/A         37  27  67  W14     30.00F WCI 28
#KENNEWICK 3S   N/A         40  28  62  SW5     30.00F
#PATERSON       N/A         42  28  57  N5      29.99F
#SAGEMOOR 2W    N/A         39  30  70  SW6     29.83F
#TOUCHET 2S     N/A         42  29  60  W7      30.01F
$$

WAZ029-260310-
FOOTHILLS OF THE BLUES...WASHINGTON

CITY            SKY/WX      TMP DP  RH  WIND    PRES   REMARKS
WALLA WALLA AP  MOCLDY      40  27  59  SW10    29.98F
#CLYDE 6NW      N/A         37  27  67  CALM    30.02F
#DAYTON SCHOOL  N/A         36  20  52  SW5     29.98F
#LOWDEN 2SE     N/A         41  29  62  SW6     29.96F
#PLEASANT VIEW 1N/A         33  27  78  SW6     30.05F
#PRESCOTT       N/A         38  29  70  CALM    30.01F
#WHITMAN COLLEGEN/A         42  27  55  S6      30.08F
#WAITSBURG 5S   N/A         36  28  72  SW6     30.13F
#WALLA WALLA 5E N/A         37  30  75  S7      N/A
#WALLA WALLA U  N/A         42  28  57  CALM    30.03F
#WHITMAN MISSIONN/A         41  30  65  CALM    30.03F
$$

WAZ030-260310-
BLUE MOUNTAINS...WASHINGTON

CITY            SKY/WX      TMP DP  RH  WIND    PRES   REMARKS
#DIXIE 5SE      N/A         31  24  75  SW10    29.84F
#SKI BLUEWOOD   N/A         24  20  84  SE1     29.83F
$$

ORZ009-041-WAZ024-260310-
COLUMBIA RIVER GORGE

CITY            SKY/WX      TMP DP  RH  WIND    PRES   REMARKS
HOOD RIVER AP   CLOUDY      41  27  57  NW7     30.03F
THE DALLES AP   CLOUDY      45  25  45  W8      30.03F
#ARLINGTON AIRPON/A         41  28  59  W12     30.03F WCI 34
#ARLINGTON HS   N/A         44  26  49  W1      29.95F
#CELILO DOT     N/A         44  23  43  SW8     N/A
#LYLE           N/A         45  30  55  W15     30.06F WCI 38
#MOSIER 1S      N/A         40  16  37  CALM    30.00F
#MURDOCK        N/A         44  30  58  W3      30.04F
#RUFUS DOT      N/A         45  28  51  NW16    N/A    WCI 38
#SMITHVILLE     N/A         43  30  60  N6      29.99F

$$

ORZ510-260310-
NORTH CENTRAL OREGON

CITY            SKY/WX      TMP DP  RH  WIND    PRES   REMARKS
#CHENOWITH 1W   N/A         35  25  66  W17     N/A    WCI 25
#COW CYN RST AREN/A         36  20  52  W10     N/A
#DUFUR 9E       N/A         34  25  69  W13     30.11F WCI 25
#GRASS VALLEY 1SN/A         35  25  66  NW7     30.12F
#KENT DOT       N/A         35  14  41  N12     N/A    WCI 27
#MAUPIN SCHOOL  N/A         42  25  51  W8      30.06F
#MORO SCHOOL    N/A         36  28  72  W12     30.06F WCI 28
#SHANIKO 5WSW   N/A         34  14  43  N14     N/A    WCI 25
#SHANIKO 4NW    N/A         31  22  69  W9      29.95F
#TYGH VALLEY 2NEN/A         41  26  55  N5      30.05F
#WAPANITIA AIRPON/A         37  26  64  W7      30.10F
#WASCO DOT      N/A         40  23  50  W9      N/A
#WASCO 5NE      N/A         34  28  78  N3      30.06F
$$

ORZ511-260310-
CENTRAL OREGON

CITY            SKY/WX      TMP DP  RH  WIND    PRES   REMARKS
BEND AIRPORT    CLEAR       34  18  51  CALM    29.98S
MADRAS AIRPORT  PTCLDY      37  21  52  NW7     30.02F
PRINEVILLE AP   CLEAR       34  21  58  W8      29.98F
REDMOND AIRPORT CLEAR       36  17  45  NW12    29.97F WCI 28
#ASHWOOD SCHOOL N/A         38  22  52  CALM    29.96S
#BEND 1SW       N/A         32  22  66  NW1     N/A
#BEND-AWBREY    N/A         34  21  58  S3      30.09F
#BEND-KIM LN    N/A         35  20  54  W1      30.03F
#CULVER         N/A         36  21  54  SW3     30.02F
#CULVER 8W      N/A         37  15  40  W2      30.00F
#LAKE BILLY CHINN/A         37  N/A N/A W8      30.11S
#POWELL BUTTE 3EN/A         37  19  48  W9      N/A
#POWELL BUTTE   N/A         34  17  49  W3      29.93F
#PRINEVILLE 3N  N/A         35  22  59  W7      30.07F
#WARM SPRINGS   N/A         42  24  48  CALM    29.97F

$$


ORZ509-260310-
EAST SLOPES OF OREGON CASCADES

CITY            SKY/WX      TMP DP  RH  WIND    PRES   REMARKS
SISTERS AWOS    N/A         36  21  54  W6      29.96F
#BLUE BOX PASS  N/A         27  N/A N/A S2      N/A
#CAMP SHERMAN   N/A         33  22  63  CALM    30.19R
#LA PINE 4NW    N/A         31  18  58  CALM    30.19F
#LAVA BUTTE DOT N/A         31  11  43  W1      N/A
#SISTERS ODOT   N/A         36  N/A N/A SE3     N/A
#SISTERS 1NW    N/A         37  18  46  W10     N/A
#SISTERS 3N     N/A         32  15  49  N3      29.96S
#SUNRIVER       N/A         31  20  63  SE2     30.15F
#TUMALO 3W      N/A         34  17  49  CALM    29.97F
#WANOGA BUTTE D N/A         22  14  71  W8      N/A

$$

ORZ044-260310-
LOWER COLUMBIA BASIN...OREGON

CITY            SKY/WX      TMP DP  RH  WIND    PRES   REMARKS
HERMISTON       MOCLDY      42  26  53  SW12    29.99F WCI 35
#BOARDMAN SCHOOLN/A         45  27  49  SW9     30.01F
#BOARDMAN 8SW   N/A         41  29  62  SW8     30.01F
#ECHO 8SW       N/A         41  26  55  W3      30.01F
#I-84 EX 198 DOTN/A         40  25  55  N9      N/A
#IONE SCHOOL    N/A         40  26  57  SW8     30.06F
#UMATILLA       N/A         42  27  55  SW2     29.93F
$$

ORZ507-260310-
NORTHERN FOOTHILLS OF THE BLUES

CITY            SKY/WX      TMP DP  RH  WIND    PRES   REMARKS
PENDLETON AIRPT PTCLDY      35  27  72  W10     29.97F
#ADAMS 3WNW     N/A         35  28  75  SW2     30.03F
#ATHENA         N/A         37  28  70  S1      30.07F
#CAYUSE         N/A         37  28  70  CALM    30.03F
#HELIX SCHOOL   N/A         36  28  72  N3      30.04F
#HELIX 3N       N/A         34  26  72  SW7     29.93F
#HOLDMAN 5SE    N/A         36  26  67  CALM    29.97F
#HOLDMAN 6E     N/A         36  28  72  SW6     29.84F
#M-F FERNDALE   N/A         42  26  53  CALM    29.97F
#M-F GROVE ELEM N/A         40  26  57  CALM    29.97F
#M-FREEWATER 5SEN/A         39  28  64  SW3     29.98F
#PENDLETON DNTN N/A         42  22  45  CALM    29.98F
#PDT AQUATIC CTRN/A         39  23  52  W3      29.98F
#PDT SUNRIDGE   N/A         38  26  62  CALM    30.00F
#PENDLETON 7NW  N/A         38  28  67  CALM    32.08S
#PILOT ROCK 1S  N/A         35  19  52  S1      29.99F
#PILOT ROCK     N/A         36  23  59  SW1     29.99F
#TUTUILLA       N/A         37  27  67  W1      30.03F
#UMAPINE 2E     N/A         40  30  67  CALM    29.97F
#WESTON SCHOOL  N/A         36  23  59  SW3     29.88F

$$

ORZ508-260310-
SOUTHERN FOOTHILLS OF THE BLUES

CITY            SKY/WX      TMP DP  RH  WIND    PRES   REMARKS
LEXINGTON       MOCLEAR     37  27  67  W7      30.01F
#AJAX           N/A         36  19  50  S6      30.13F
#CONDON SCHOOL  N/A         34  26  72  W5      29.92F
#CONDON 5W      N/A         31  21  66  W8      29.91F
#HEPPNER EOC    N/A         35  26  69  W5      29.99F
#HEPPNER 4NE    N/A         31  25  78  W3      30.07F
#LEXINGTON 2SE  N/A         38  27  64  NW2     29.96F
#MIKKALO        N/A         37  25  61  NW7     30.10F
#OLEX 4N        N/A         38  29  70  SW12    29.98F WCI 30
#RUGGS 5NE      N/A         32  22  66  W3      30.14S
#RUGGS 2SW      N/A         34  26  72  NW6     30.10F

$$

ORZ502-503-260310-
BLUE MOUNTAINS

CITY            SKY/WX      TMP DP  RH  WIND    PRES   REMARKS
MEACHAM         MOCLDY      28  21  75  CALM    29.91F
#BATTLE MTN DOT N/A         29  14  53  CALM    N/A
#GREENHORN 9SW  N/A         30  18  60  CALM    29.95F
#HEPPNER 15SE   N/A         26  20  78  N1      30.19F
#LADD CYN SMT   N/A         31  13  47  E6      N/A
#LADD CREEK ODOTN/A         33  19  56  S1      N/A
#LONG CREEK HS  N/A         29  25  85  CALM    N/A
#N POWDER DOT   N/A         31  19  61  W3      N/A
#PIKES PEAK     N/A         29  23  78  NW13    27.99S WCI 19
#TOLLGATE       N/A         22  21  96  S3      29.73F
#TROY SCHOOL    N/A         38  27  64  SW1     29.88F
#UKIAH          N/A         32  22  66  CALM    30.01F
#WESTON 4E      N/A         29  23  78  SE2     30.04F
$$

ORZ505-260310-
JOHN DAY BASIN

CITY            SKY/WX      TMP DP  RH  WIND    PRES   REMARKS
JOHN DAY        PTCLDY      32  20  61  CALM    29.95F
#JOHN DAY KJDY  N/A         36  N/A N/A CALM    30.57R
#ANTELOPE 9ESE  N/A         42  23  46  SW1     N/A
#DAYVILLE SCHOOLN/A         39  18  42  W3      29.93F
#MITCHELL       N/A         34  25  69  CALM    30.13F
#MITCHELL 8NW   N/A         34  20  56  CALM    29.90F
#MONUMENT HS    N/A         41  18  39  N5      29.93F
#MT. VERNON 5SE N/A         31  18  58  CALM    29.88F
#SPRAY SCHOOL   N/A         40  N/A N/A CALM    N/A
#WINLOCK        N/A         32  19  58  CALM    29.92F
$$

ORZ506-260310-
OCHOCO AND JOHN DAY HIGHLANDS

CITY            SKY/WX      TMP DP  RH  WIND    PRES   REMARKS
#HORSE RIDGE DO N/A         35  16  45  NW6     N/A
#PAULINA SCHOOL N/A         36  17  45  W6      N/A
#PINE MTN OBS   N/A         23  15  71  SW1     N/A
#PRAIRIE CITY   N/A         35  15  43  W3      30.12F
#SENECA         N/A         25  N/A N/A N1      N/A
#SENECA 9NW     N/A         26  15  63  CALM    30.18F
$$

ORZ049-260310-
GRANDE RONDE VALLEY

CITY            SKY/WX      TMP DP  RH  WIND    PRES   REMARKS
LA GRANDE       MOCLDY      34  19  54  CALM    29.94F
#COVE           N/A         32  24  72  CALM    29.98F
#COVE SCHOOL    N/A         30  22  72  CALM    29.97F
#COVE 6NW       N/A         35  23  61  CALM    30.07F
#ELGIN 3N       N/A         33  15  47  SW3     29.91F
#ELGIN 1E       N/A         34  21  58  SW1     N/A
#IMBLER SCHOOL  N/A         31  24  75  CALM    29.91F
#ISLAND CITY 4N N/A         44  38  79  CALM    30.11F
#UNION 1S       N/A         31  20  63  CALM    30.07F
$$

ORZ050-260310-
WALLOWA COUNTY

CITY            SKY/WX      TMP DP  RH  WIND    PRES   REMARKS
JOSEPH AIRPORT  PTCLDY      23  16  74  CALM    29.90F
#IMNAHA SCHOOL  N/A         38  25  59  N7      29.96F
#IMNAHA 10S     N/A         29  19  66  CALM    30.11S
#JOSEPH 3N      N/A         24  14  65  CALM    29.93F
#JOSEPH 3W      N/A         21  13  71  CALM    29.74F
#LOSTINE        N/A         29  21  72  CALM    29.88F
#LOSTINE 3SE    N/A         28  21  75  W3      29.96F
#MT HOWARD 8000 N/A         10   7  87  SW2     29.68F
#PROMISE 1S     N/A         29  19  66  E1      30.15F
#WALLOWA SCHOOL N/A         31  21  66  CALM    29.91F



$$



USA.gov is the U.S. government's official web portal to all federal, state and local government web resources and services.